Flag for Canada Weather past 2 weeks in Timmins, Ontario, Canada

Now
41 °F

Broken clouds.


Feels Like: 35 °F
Forecast: 40 / 53 °F
Wind: 9 mph from Northwest

Location: Timmins

Current Time: Sep 22, 2014 at 10:25:33 AM

Latest Report: Sep 22, 2014 at 10:00 AM


Visibility: 15 mi

Pressure: 30.02 "Hg

Humidity: 87%

Dew point: 37 °F

Location of TimminsLocation

Historic Weather in Timmins — Graph

°F

Timmins temperature yesterday

Maximum temperature yesterday: 46 °F (at 12:00 AM)
Minimum temperature yesterday: 39 °F (at 10:00 PM)
Average temperature yesterday: 43 °F

Past Weeks' High & Low Weather Summary

 TemperatureHumidityPressure
High77 °F (Sep 8, 3:00 PM)100% (Sep 7, 11:00 PM)30.38 "Hg (Sep 7, 11:00 PM)
Low27 °F (Sep 19, 2:00 AM)9% (Sep 21, 6:00 AM)29.49 "Hg (Sep 20, 4:00 PM)
Average46 °F84%30.04 "Hg
* Reported Sep 7 9:00 AM — Sep 22 9:00 AM, Timmins, Weather by CustomWeather, © 2014

Note: Actual official high and low records may vary slightly from our data, if they occured in-between our weather recording intervals... More about our weather records

Advertising

Timmins weather history for previous 24 hours

 ConditionsComfort  
Time TempWeatherWind HumidityBarometerVisibility
9:00 AM
Sep 22
39 °FDrizzle. More clouds than sun.8 mph93%30.02 "Hg15 mi
8:00 AM39 °FDrizzle. Mostly cloudy.8 mph93%30.01 "Hg15 mi
7:00 AM39 °FDrizzle. Mostly cloudy.7 mph93%30.01 "Hg12 mi
6:00 AM39 °FDrizzle. Mostly cloudy.13 mph93%29.99 "Hg10 mi
5:00 AM37 °FPassing clouds.8 mph100%29.98 "Hg15 mi
4:00 AM37 °FPassing clouds.7 mph100%29.98 "Hg15 mi
3:00 AM39 °FPartly cloudy.7 mph93%29.98 "Hg15 mi
2:00 AM39 °FPassing clouds.10 mph100%29.97 "Hg15 mi
1:00 AM39 °FPassing clouds.7 mph100%29.97 "Hg15 mi
12:00 AM41 °FDrizzle. Mostly cloudy.8 mph100%29.97 "Hg10 mi
11:00 PM
Sep 21
41 °FPartly cloudy.9 mph93%29.98 "Hg15 mi
10:00 PM39 °FPassing clouds.7 mph93%29.97 "Hg15 mi
9:00 PM41 °FPartly cloudy.6 mph93%29.95 "Hg15 mi
8:00 PM41 °FPartly sunny.8 mph93%29.94 "Hg15 mi
7:00 PM43 °FPartly sunny.10 mph87%29.92 "Hg15 mi
6:46 PM43 °FBroken clouds.12 mph87%29.91 "Hg15 mi
6:00 PM43 °FScattered showers. Broken clouds.10 mph87%29.90 "Hg12 mi
5:00 PM46 °FSprinkles. Partly sunny.15 mph82%29.87 "Hg8 mi
4:00 PM46 °FBroken clouds.16 mph76%29.86 "Hg8 mi
2:00 PM45 °FDrizzle. Broken clouds.13 mph87%29.83 "Hg8 mi
1:00 PM45 °FPartly sunny.12 mph87%29.83 "Hg15 mi
12:00 PM45 °FBroken clouds.10 mph87%29.83 "Hg8 mi
11:00 AM43 °FDrizzle. Fog.14 mph93%29.82 "Hg5 mi
10:00 AM41 °FDrizzle. Fog.8 mph9%29.84 "Hg4 mi
Weather by CustomWeather, © 2014

See weather overviewHow to use our weather pages